WetterOnline ( https://www.wetteronline.at )

Wetter aktuell Cottbus

Aktuelles Wetter: Cottbus (70m)

6-stündlich | Neueste Meldungen
Ortszeit Temperatur Wetter
Fr, 23.10. 8:00 14.2° C bedeckt
Fr, 23.10. 2:00 15.3° C wolkig
Do, 22.10. 20:00 14.8° C wolkenlos
Do, 22.10. 14:00 20.9° C wolkig
Do, 22.10. 8:00 12.6° C wolkig
Do, 22.10. 2:00 12.4° C fast wolkenlos
Mi, 21.10. 20:00 13.4° C -
Mi, 21.10. 14:00 14.8° C bewölkt
Ortszeit Temperatur Wetter
Fr, 23.10. 12:30 16.8° C bedeckt
Fr, 23.10. 12:20 16.8° C bedeckt
Fr, 23.10. 12:10 17.0° C bedeckt
Fr, 23.10. 12:00 16.4° C bedeckt
Fr, 23.10. 11:50 16.4° C bedeckt
Fr, 23.10. 11:40 16.3° C bedeckt
Fr, 23.10. 11:30 16.1° C bedeckt
Fr, 23.10. 11:00 15.9° C bedeckt
Fr, 23.10. 10:30 15.3° C bedeckt
Fr, 23.10. 10:00 15.0° C bedeckt
Fr, 23.10. 9:30 14.7° C bedeckt
Ortszeit Relative Feuchte Sichtweite
Fr, 23.10. 8:00 85% 35 km
Fr, 23.10. 2:00 76% 30 km
Do, 22.10. 20:00 76% 24 km
Do, 22.10. 14:00 56% 65 km
Do, 22.10. 8:00 78% 30 km
Do, 22.10. 2:00 73% 29 km
Mi, 21.10. 20:00 64% 30 km
Mi, 21.10. 14:00 62% 45 km
Ortszeit Relative Feuchte Sichtweite
Fr, 23.10. 12:30 79% 30 km
Fr, 23.10. 12:20 79% -
Fr, 23.10. 12:10 78% -
Fr, 23.10. 12:00 79% 29 km
Fr, 23.10. 11:50 79% -
Fr, 23.10. 11:40 79% -
Fr, 23.10. 11:30 78% 30 km
Fr, 23.10. 11:00 78% 30 km
Fr, 23.10. 10:30 82% 30 km
Fr, 23.10. 10:00 83% 30 km
Fr, 23.10. 9:30 84% 30 km
Ortszeit Niederschlagsmenge Niederschlagsart
Fr, 23.10. 8:00 0.0 l/m2 in 12 Std. -
Fr, 23.10. 2:00 0.0 l/m2 in 6 Std. -
Do, 22.10. 20:00 0.0 l/m2 in 12 Std. -
Do, 22.10. 14:00 0.0 l/m2 in 6 Std. -
Do, 22.10. 8:00 0.0 l/m2 in 12 Std. -
Do, 22.10. 2:00 0.0 l/m2 in 6 Std. -
Mi, 21.10. 20:00 0.1 l/m2 in 12 Std. Regen
Mi, 21.10. 14:00 0.1 l/m2 in 6 Std. Regen
Ortszeit Niederschlagsmenge Niederschlagsart
Fr, 23.10. 12:30 0.0 l/m2 in 1 Std. -
Fr, 23.10. 12:20 keine Meldung -
Fr, 23.10. 12:10 keine Meldung -
Fr, 23.10. 12:00 0.0 l/m2 in 1 Std. -
Fr, 23.10. 11:50 keine Meldung -
Fr, 23.10. 11:40 keine Meldung -
Fr, 23.10. 11:30 0.0 l/m2 in 1 Std. -
Fr, 23.10. 11:00 0.0 l/m2 in 1 Std. Sprühregen
Fr, 23.10. 10:30 0.0 l/m2 in 1 Std. -
Fr, 23.10. 10:00 0.0 l/m2 in 1 Std. -
Fr, 23.10. 9:30 0.0 l/m2 in 1 Std. -
Ortszeit Stärke Spitze Richtung
km/h Bft. km/h Grad Sektor
Fr, 23.10. 8:00 6 1 20 200° S
Fr, 23.10. 2:00 9 2 20 210° SW
Do, 22.10. 20:00 7 2 32 200° S
Do, 22.10. 14:00 17 3 30 230° SW
Do, 22.10. 8:00 9 2 24 210° SW
Do, 22.10. 2:00 9 2 26 180° S
Mi, 21.10. 20:00 14 3 32 190° S
Mi, 21.10. 14:00 13 3 28 200° S
Ortszeit Stärke Spitze Richtung
km/h Bft. km/h Grad Sektor
Fr, 23.10. 12:30 11 2 18 210° SW
Fr, 23.10. 12:20 11 2 - 210° SW
Fr, 23.10. 12:10 9 2 - 220° SW
Fr, 23.10. 12:00 7 2 18 210° SW
Fr, 23.10. 11:50 7 2 - 210° SW
Fr, 23.10. 11:40 9 2 - 210° SW
Fr, 23.10. 11:30 11 2 18 210° SW
Fr, 23.10. 11:00 7 2 14 190° S
Fr, 23.10. 10:30 6 1 11 180° S
Fr, 23.10. 10:00 7 2 11 190° S
Fr, 23.10. 9:30 7 2 11 190° S
Ortszeit Untergrenze Bedeckung Gattung
total tief tief mittel hoch
Fr, 23.10. 8:00 1800 m 8/8 8/8 - - -
Fr, 23.10. 2:00 1800 m 8/8 1/8 - - -
Do, 22.10. 20:00 5100 m 0/8 0/8 - - -
Do, 22.10. 14:00 4500 m 7/8 4/8 - - -
Do, 22.10. 8:00 7200 m 7/8 0/8 - - -
Do, 22.10. 2:00 10500 m 1/8 0/8 - - -
Mi, 21.10. 20:00 - - - - - -
Mi, 21.10. 14:00 2400 m 8/8 4/8 - - -
Ortszeit Bedeckungsgrad in Achtel und Wolkenuntergrenze
Fr, 23.10. 12:30 7(840m) 8(2100m)
Fr, 23.10. 12:20 7(840m) 8(2100m)
Fr, 23.10. 12:10 7(870m) 8(2100m)
Fr, 23.10. 12:00 7(840m) 8(2100m)
Fr, 23.10. 11:50 7(840m) 8(2100m)
Fr, 23.10. 11:40 7(810m) 8(2100m)
Fr, 23.10. 11:30 7(810m) 8(2700m) 8(3900m)
Fr, 23.10. 11:00 5(780m) 8(2700m) 8(5400m)
Fr, 23.10. 10:30 1(840m) 8(2400m)
Fr, 23.10. 10:00 8(2100m)
Fr, 23.10. 9:30 1(930m) 8(2100m)
Ortszeit Luftdruck NN (hPa) Tendenz (hPa in 3 Std.)
Fr, 23.10. 8:00 1013 + 0,3
Fr, 23.10. 2:00 1013 - 0,4
Do, 22.10. 20:00 1014 + 0,5
Do, 22.10. 14:00 1014 - 0,3
Do, 22.10. 8:00 1013 + 1,6
Do, 22.10. 2:00 1011 + 0,5
Mi, 21.10. 20:00 1009 - 0,1
Mi, 21.10. 14:00 1011 - 0,7
Ortszeit Luftdruck NN (hPa) Tendenz (hPa in 3 Std.)
Fr, 23.10. 12:30 1013 - 0,2
Fr, 23.10. 12:20 1013 keine Meldung
Fr, 23.10. 12:10 1013 keine Meldung
Fr, 23.10. 12:00 1013 - 0,2
Fr, 23.10. 11:50 1013 keine Meldung
Fr, 23.10. 11:40 1013 keine Meldung
Fr, 23.10. 11:30 1013 0,0
Fr, 23.10. 11:00 1013 + 0,2
Fr, 23.10. 10:30 1013 + 0,2
Fr, 23.10. 10:00 1013 + 0,2
Fr, 23.10. 9:30 1013 + 0,4
Ortszeit Schneehöhe (cm)
Fr, 23.10. 8:00 0
Fr, 23.10. 2:00 0
Do, 22.10. 20:00 0
Do, 22.10. 14:00 0
Do, 22.10. 8:00 0
Do, 22.10. 2:00 0
Mi, 21.10. 20:00 0
Mi, 21.10. 14:00 0
Ortszeit Schneehöhe (cm)
Fr, 23.10. 12:30 0
Fr, 23.10. 12:20 0
Fr, 23.10. 12:10 0
Fr, 23.10. 12:00 0
Fr, 23.10. 11:50 0
Fr, 23.10. 11:40 0
Fr, 23.10. 11:30 0
Fr, 23.10. 11:00 0
Fr, 23.10. 10:30 0
Fr, 23.10. 10:00 0
Fr, 23.10. 9:30 0
Link zu dieser Seite / Seite empfehlen

Das Wetter in ...